#timestamp,LO_Frequency,Hit,StdDev 
1619247615.4,286046998.1,N
1619247635.2,286047002.3,N
1619247655.1,286047001.4,N
1619247656.0,286047001.4,N
1619247675.8,286047004.2,N
1619247695.6,286047004.3,N
1619247715.5,286047002.0,N
1619247735.3,286047000.3,N
1619247755.2,286047000.1,N
1619247775.0,286047002.5,N
1619247775.9,286047002.5,N
1619247795.7,286047000.0,N
1619247815.6,286047001.0,N
1619247835.4,286046998.8,N
1619247855.3,286046999.1,N
1619247875.1,286046996.7,N
1619247876.0,286046996.7,N
1619247895.8,286046997.2,N
1619247915.7,286046999.6,N
1619247935.5,286046999.5,N
1619247955.3,286046997.0,N
1619247975.2,286046999.3,N
1619247995.0,286046996.9,N
1619247995.9,286046996.9,N
1619248015.8,286046999.6,N
1619248035.6,286046999.3,N
1619248055.4,286047000.9,N
1619248075.3,286047000.2,N
1619248095.1,286046998.8,N
1619248115.8,286046996.9,N
1619248135.7,286046996.8,N
1619248155.5,286046999.0,N
1619248175.4,286046999.5,N
1619248195.2,286046998.1,N
1619248215.0,286046998.6,N
1619248215.9,286046998.6,N
1619248235.8,286046999.2,N
1619248255.6,286046999.5,N
1619248275.4,286046998.6,N
1619248295.3,286047000.8,N
1619248315.1,286047000.9,N
1619248335.9,286047000.8,N
1619248355.7,286046998.2,N
1619248375.6,286046998.6,N
1619248395.4,286046999.1,N
1619248415.2,286046996.5,N
1619248435.1,286047011.9,Y
1619248436.0,286046999.1,P
1619248455.8,286046999.3,P
1619248475.7,286046997.8,P
1619248495.5,286046997.3,Y
1619248515.3,286046999.5,P
1619248535.2,286046996.8,P
1619248555.0,286046998.8,N
1619248555.9,286046998.8,N
1619248575.8,286047000.3,N
1619248595.6,286047000.2,N
1619248615.4,286047002.5,N
1619248635.3,286047004.3,N
1619248655.1,286047006.0,N
1619248675.9,286047005.6,N
1619248695.7,286047004.5,N
1619248715.5,286047006.4,N
1619248735.4,286047005.4,N
1619248755.2,286047002.2,N
1619248775.1,286047000.4,N
1619248776.0,286047000.4,N
1619248795.8,286047000.5,N
1619248815.7,286047002.5,N
1619248835.5,286047002.0,N
1619248855.3,286047004.1,N
1619248875.2,286047001.5,N
1619248895.0,286047002.0,N
1619248895.9,286047002.0,N
1619248915.7,286047002.2,N
1619248935.6,286047004.3,N
1619248955.4,286047001.5,N
1619248975.3,286047002.2,N
1619248995.1,286047001.3,N
1619249015.8,286047004.4,N
1619249035.7,286047004.9,N
1619249055.5,286047005.0,N
1619249075.3,286047003.0,N
1619249095.2,286047001.9,N
1619249115.0,286047000.0,N
1619249115.9,286047000.0,N
1619249135.8,286047003.4,N
1619249155.6,286047004.8,N
1619249175.4,286047006.3,Y
1619249195.3,286047002.2,P
1619249215.1,286047001.1,N
1619249235.9,286046999.3,N
1619249255.7,286046998.2,N
1619249275.5,286046998.5,N
1619249295.4,286046998.2,N
1619249315.2,286046998.5,N
1619249335.0,286047000.9,N
1619249335.9,286047000.9,N
1619249355.8,286047001.2,N
1619249375.6,286047001.1,N
1619249395.5,286047002.4,N
1619249415.3,286047002.2,N
1619249435.2,286047002.1,N
1619249455.9,286047001.3,N
1619249475.7,286047003.6,N
1619249495.6,286047005.9,Y
1619249515.4,286047004.4,P
1619249535.2,286047002.1,N
1619249555.1,286047003.5,N
1619249556.0,286047003.5,N
1619249575.8,286047002.9,N
1619249595.7,286047005.6,Y
1619249615.5,286047000.9,P
1619249635.3,286046999.0,N
1619249655.2,286046999.1,N
1619249675.0,286046999.2,N
1619249675.9,286046999.2,N
1619249695.8,286046998.7,N
1619249715.6,286046998.2,N
1619249735.4,286046997.2,N
1619249755.3,286046993.7,Y
1619249775.1,286046995.3,P
1619249795.9,286046997.9,N
1619249815.7,286046994.9,P
1619249835.5,286046997.0,N
1619249855.4,286046997.4,N
1619249875.2,286046997.6,N
1619249895.0,286046997.7,N
1619249895.9,286046997.7,N
1619249915.8,286046997.5,N
1619249935.6,286046997.0,N
1619249955.5,286046999.2,N
1619249975.3,286046996.9,N
1619249995.1,286046999.3,N
1619250015.9,286046999.4,N
1619250035.7,286046999.4,N
1619250055.5,286046996.8,N
1619250075.4,286046999.3,N
1619250095.2,286046998.7,N
1619250115.1,286047000.1,N
1619250116.0,286047000.1,N
1619250135.8,286047004.0,N
1619250155.6,286046998.1,N
1619250175.5,286046998.2,N
1619250195.3,286046999.0,N
1619250215.1,286046999.3,N
1619250235.9,286046999.0,N
1619250255.7,286046996.5,N
1619250275.5,286046995.8,N
1619250295.4,286046995.9,N
1619250315.2,286046996.0,N
1619250335.1,286046995.9,N
1619250336.0,286046995.9,N
1619250355.8,286046997.3,N
1619250375.6,286046995.4,N
1619250395.5,286046996.2,N
1619250415.3,286046993.7,Y
1619250435.2,286046997.0,P
1619250455.9,286047000.4,N
1619250475.7,286047000.6,N
1619250495.6,286047002.9,N
1619250515.4,286047004.2,N
1619250535.2,286047002.6,N
1619250555.1,286046999.7,N
1619250556.0,286046999.7,N
1619250575.8,286047000.6,N
1619250595.7,286046997.0,N
1619250615.5,286046997.2,N
1619250635.3,286046997.1,N
1619250655.2,286046999.2,N
1619250675.9,286047000.7,N
1619250695.7,286046998.7,N
1619250715.6,286046996.6,N
1619250735.4,286046998.9,N
1619250755.2,286046995.0,N
1619250775.1,286046999.2,N
1619250776.0,286046999.2,N
1619250795.8,286047000.1,N
1619250815.7,286047000.6,N
1619250835.5,286047001.2,N
1619250855.3,286046996.8,N
1619250875.2,286046996.8,N
1619250895.0,286047000.9,N
1619250895.9,286047000.9,N
1619250915.8,286046998.4,N
1619250935.6,286046998.1,N
1619250955.4,286047000.4,N
1619250975.3,286047001.2,N
1619250995.1,286046997.5,N
1619251015.8,286046995.1,N
1619251035.7,286047006.6,N
1619251055.5,286047006.7,N
1619251075.3,286047004.9,N
1619251095.2,286047007.5,N
1619251115.0,286047004.8,N
1619251115.9,286047004.8,N
1619251135.8,286047006.0,N
1619251155.6,286047004.2,N
1619251175.4,286047001.8,N
1619251195.3,286047002.8,N
